GW4651 Weather Reports


time (UTC)temp
C
wind
direction
speed
KPH
gust
KPH
rain 1hr
cm
rain 24hr
cm
rain mn
cm
humidity
%
barometer
mb
20260510234606 11 37 1.6 3.2 0.00 0.00 0.00 78 1015.5
20260510234105 11 58 1.6 4.8 0.00 0.00 0.00 76 1015.4
20260510233606 11 68 3.2 4.8 0.00 0.00 0.00 76 1015.7
20260510233106 11 70 4.8 8.0 0.00 0.00 0.00 76 1015.5
20260510232606 11 76 4.8 8.0 0.00 0.00 0.00 77 1015.3
20260510232106 11 79 4.8 8.0 0.00 0.00 0.00 76 1015.4
20260510231606 11 51 3.2 8.0 0.00 0.00 0.00 75 1015.5
20260510231106 11 71 1.6 8.0 0.00 0.00 0.00 75 1015.6
20260510230605 11 59 1.6 3.2 0.00 0.00 0.00 75 1015.5
20260510225605 11 8 0.0 1.6 0.00 0.00 0.00 75 1015.7
20260510225108 11 239 1.6 4.8 0.00 0.00 0.00 75 1015.7
20260510224607 11 268 3.2 4.8 0.00 0.00 0.00 75 1015.7
20260510224106 11 151 1.6 3.2 0.00 0.00 0.00 74 1015.4
20260510223606 11 128 0.0 3.2 0.00 0.00 0.00 74 1015.5
20260510222107 11 107 1.6 3.2 0.00 0.00 0.00 74 1015.6
20260510221607 11 135 1.6 3.2 0.00 0.00 0.00 74 1015.6
20260510221105 11 18 1.6 3.2 0.00 0.00 0.00 75 1015.8
20260510220605 11 36 0.0 3.2 0.00 0.00 0.00 75 1015.7
20260510215607 12 5 1.6 3.2 0.00 0.00 0.00 74 1015.7
20260510214105 12 28 1.6 3.2 0.00 0.00 0.00 73 1015.3
20260510213606 12 77 0.0 1.6 0.00 0.00 0.00 73 1015.6
20260510213105 12 19 0.0 8.0 0.00 0.00 0.00 73 1015.5
20260510212606 12 275 4.8 8.0 0.00 0.00 0.00 73 1015.5
20260510212105 12 266 6.4 9.7 0.00 0.00 0.00 72 1015.6
20260510211606 12 278 3.2 8.0 0.00 0.00 0.00 72 1015.6
20260510210605 12 319 4.8 8.0 0.00 0.00 0.00 72 1015.4
20260510210106 12 332 3.2 8.0 0.00 0.00 0.00 73 1015.6
20260510205606 12 330 3.2 8.0 0.00 0.00 0.00 72 1015.4
20260510205105 12 326 4.8 9.7 0.00 0.00 0.00 72 1015.3
20260510204606 12 317 6.4 12.9 0.00 0.00 0.00 72 1015.3
20260510204105 12 333 4.8 9.7 0.00 0.00 0.00 73 1015.2
20260510203106 12 336 4.8 9.7 0.00 0.00 0.00 73 1015.3
20260510202607 12 282 6.4 11.3 0.00 0.00 0.00 73 1015.1
20260510200605 12 253 14.5 20.9 0.00 0.00 0.00 71 1014.6
20260510200105 13 279 9.7 11.3 0.00 0.00 0.00 70 1014.3
20260510195606 13 264 9.7 11.3 0.00 0.00 0.00 70 1014.4
20260510195105 13 274 6.4 11.3 0.00 0.00 0.00 70 1014.5
20260510194605 13 285 8.0 9.7 0.00 0.00 0.00 72 1014.5
20260510194106 13 292 6.4 9.7 0.00 0.00 0.00 71 1014.3
20260510193606 13 256 6.4 8.0 0.00 0.00 0.00 71 1014.6
20260510193105 13 273 3.2 8.0 0.00 0.00 0.00 71 1014.4
20260510192105 13 269 6.4 9.7 0.00 0.00 0.00 71 1014.3
20260510191606 13 286 8.0 14.5 0.00 0.00 0.00 70 1014.3
20260510191107 13 289 11.3 16.1 0.00 0.00 0.00 69 1014.3
20260510190606 13 279 11.3 16.1 0.00 0.00 0.00 69 1014.1
20260510190105 13 280 9.7 14.5 0.00 0.00 0.00 70 1014.2
20260510185605 13 257 11.3 19.3 0.00 0.00 0.00 70 1014.2
20260510185105 13 258 14.5 20.9 0.00 0.00 0.00 70 1014.4
20260510183106 13 261 11.3 24.1 0.00 0.00 0.00 72 1014.1
20260510182607 13 255 20.9 32.2 0.00 0.00 0.00 71 1014.0
20260510181605 14 262 16.1 29.0 0.00 0.00 0.00 70 1013.8
20260510181106 14 249 20.9 29.0 0.00 0.00 0.00 70 1013.6
20260510180105 14 248 17.7 25.7 0.00 0.00 0.00 72 1013.9
20260510175605 14 258 14.5 20.9 0.00 0.00 0.00 73 1013.5
20260510174105 14 265 16.1 27.4 0.00 0.00 0.00 73 1013.5
20260510173606 14 264 14.5 29.0 0.00 0.00 0.00 73 1013.1
20260510172605 14 268 16.1 25.7 0.00 0.00 0.00 73 1013.0
20260510172105 14 289 12.9 32.2 0.00 0.00 0.00 73 1013.2
20260510171105 15 262 20.9 33.8 0.00 0.00 0.00 72 1013.3
20260510170605 15 262 16.1 20.9 0.00 0.00 0.00 71 1012.9
20260510170106 15 232 16.1 22.5 0.00 0.00 0.00 71 1012.9
20260510165605 15 242 14.5 22.5 0.00 0.00 0.00 70 1012.9
20260510165105 15 240 20.9 38.6 0.00 0.00 0.00 71 1013.3
20260510164605 15 251 22.5 35.4 0.00 0.00 0.00 69 1013.1
20260510164105 15 256 14.5 29.0 0.00 0.00 0.00 69 1012.9
20260510163605 15 255 20.9 33.8 0.00 0.00 0.00 71 1013.2
20260510163105 15 242 20.9 32.2 0.00 0.00 0.00 72 1013.2
20260510162605 15 241 20.9 32.2 0.00 0.00 0.00 72 1013.1
20260510162105 15 254 20.9 29.0 0.00 0.00 0.00 72 1013.0
20260510161606 14 250 24.1 37.0 0.00 0.00 0.00 72 1013.0
20260510161105 15 250 29.0 40.2 0.00 0.00 0.00 70 1013.3
20260510160605 15 240 19.3 27.4 0.00 0.00 0.00 67 1012.5
20260510155605 16 228 20.9 33.8 0.00 0.00 0.00 65 1012.0
20260510155105 16 218 22.5 38.6 0.00 0.00 0.00 65 1012.2
20260510154605 16 228 17.7 32.2 0.00 0.00 0.00 65 1011.9
20260510154105 16 221 22.5 35.4 0.00 0.00 0.00 63 1011.8
20260510153605 16 203 24.1 40.2 0.00 0.00 0.00 64 1011.9
20260510153105 16 212 24.1 38.6 0.00 0.00 0.00 63 1011.7
20260510152604 16 226 20.9 40.2 0.00 0.00 0.00 63 1011.9
20260510152106 17 217 24.1 41.8 0.00 0.00 0.00 62 1011.7
20260510151605 16 231 24.1 40.2 0.00 0.00 0.00 65 1012.0
20260510151105 16 210 25.7 40.2 0.00 0.00 0.00 64 1011.8
20260510150604 17 236 22.5 40.2 0.00 0.00 0.00 64 1011.9
20260510150106 16 225 22.5 45.1 0.00 0.00 0.00 65 1011.9
20260510145605 16 215 29.0 45.1 0.00 0.00 0.00 67 1012.3
20260510145105 16 221 25.7 46.7 0.00 0.00 0.00 67 1012.2
20260510144605 16 210 25.7 38.6 0.00 0.00 0.00 67 1012.3
20260510143605 16 223 25.7 37.0 0.00 0.00 0.00 67 1012.3
20260510142604 16 208 32.2 41.8 0.00 0.00 0.00 68 1012.6
20260510142104 15 232 20.9 38.6 0.00 0.00 0.00 69 1012.6
20260510141106 16 231 17.7 35.4 0.00 0.00 0.00 71 1012.6
20260510140605 15 228 19.3 32.2 0.00 0.00 0.00 72 1012.8
20260510140105 15 234 16.1 35.4 0.00 0.00 0.00 74 1012.9
20260510135105 15 218 20.9 40.2 0.00 0.00 0.00 72 1013.1
20260510134605 15 223 19.3 37.0 0.00 0.00 0.00 72 1013.1
20260510134105 15 225 25.7 49.9 0.00 0.00 0.00 72 1013.3
20260510133605 15 223 25.7 37.0 0.00 0.00 0.00 73 1013.3
20260510133106 15 213 29.0 46.7 0.00 0.00 0.00 73 1013.2
20260510132605 15 213 20.9 33.8 0.00 0.00 0.00 75 1013.1
20260510132105 15 198 20.9 35.4 0.00 0.03 0.00 75 1013.4
20260510130606 14 226 25.7 38.6 0.00 0.03 0.00 74 1013.3
20260510130105 14 213 24.1 45.1 0.00 0.03 0.00 75 1013.2
20260510125105 14 205 30.6 46.7 0.00 0.03 0.00 73 1013.4
20260510124606 15 211 24.1 49.9 0.00 0.03 0.00 72 1013.2
20260510123605 15 212 25.7 40.2 0.00 0.03 0.00 72 1013.1
20260510123105 15 213 22.5 40.2 0.00 0.03 0.00 72 1013.3
20260510122105 14 208 22.5 35.4 0.00 0.03 0.00 73 1013.3
20260510121605 14 226 19.3 38.6 0.00 0.03 0.00 73 1013.3
20260510121104 14 200 20.9 35.4 0.00 0.05 0.00 72 1013.4
20260510120606 15 213 20.9 37.0 0.00 0.05 0.00 71 1013.3
20260510115605 15 200 32.2 48.3 0.00 0.05 0.00 73 1013.5
20260510115104 15 213 32.2 49.9 0.00 0.05 0.00 71 1013.5
20260510114105 16 214 25.7 46.7 0.00 0.05 0.00 70 1013.2
20260510113605 15 195 27.4 48.3 0.00 0.05 0.00 70 1013.2
20260510113106 15 198 30.6 46.7 0.00 0.05 0.00 70 1013.2
20260510112606 15 199 32.2 49.9 0.00 0.05 0.00 70 1013.3
20260510112105 15 207 29.0 46.7 0.00 0.05 0.00 72 1013.4
20260510111605 14 203 25.7 40.2 0.00 0.05 0.00 72 1013.4
20260510111104 14 205 29.0 45.1 0.00 0.05 0.00 74 1013.7
20260510110605 14 206 27.4 46.7 0.00 0.05 0.00 72 1013.7
20260510110104 14 212 27.4 46.7 0.00 0.05 0.00 73 1013.8
20260510105604 14 208 27.4 45.1 0.00 0.05 0.00 73 1013.7
20260510105105 14 213 22.5 45.1 0.00 0.05 0.00 74 1013.9
20260510104606 13 209 30.6 45.1 0.00 0.05 0.00 74 1013.9
20260510104104 14 200 25.7 48.3 0.00 0.05 0.00 73 1013.6
20260510103104 14 213 24.1 48.3 0.00 0.05 0.00 72 1013.6
20260510102605 14 204 33.8 46.7 0.00 0.05 0.00 73 1013.6
20260510102104 15 214 22.5 53.1 0.00 0.05 0.00 71 1013.3
20260510101105 15 203 29.0 46.7 0.00 0.05 0.00 71 1013.5
20260510100604 14 217 27.4 40.2 0.00 0.05 0.00 72 1013.7
20260510100105 14 215 27.4 41.8 0.00 0.05 0.00 73 1013.5
20260510095605 15 211 19.3 35.4 0.00 0.05 0.00 72 1013.5
20260510095104 13 202 25.7 40.2 0.00 0.05 0.00 73 1013.6
20260510094605 13 208 25.7 46.7 0.00 0.05 0.00 73 1013.6
20260510094105 14 211 32.2 46.7 0.00 0.05 0.00 73 1013.7
20260510093604 14 205 27.4 40.2 0.00 0.05 0.00 72 1013.3
20260510092604 15 208 20.9 32.2 0.00 0.05 0.00 71 1013.2
20260510092105 14 206 22.5 37.0 0.00 0.05 0.00 72 1013.6
20260510091605 14 225 17.7 35.4 0.00 0.05 0.00 72 1013.4
20260510091105 14 226 20.9 35.4 0.00 0.05 0.00 73 1013.4
20260510090104 14 213 20.9 37.0 0.00 0.08 0.00 73 1013.6
20260510085605 13 209 20.9 32.2 0.00 0.08 0.00 73 1013.6
20260510085105 13 212 20.9 32.2 0.00 0.08 0.00 74 1013.7
20260510084604 13 220 16.1 41.8 0.00 0.08 0.00 75 1013.4
20260510084104 13 208 24.1 35.4 0.00 0.08 0.00 75 1013.5
20260510083604 13 209 20.9 33.8 0.00 0.08 0.00 76 1013.3
20260510083105 13 214 22.5 35.4 0.00 0.08 0.00 77 1013.5
20260510082606 13 217 22.5 40.2 0.00 0.08 0.00 77 1013.7
20260510082105 13 195 24.1 38.6 0.00 0.08 0.00 76 1013.6
20260510081606 13 198 25.7 41.8 0.00 0.08 0.00 74 1013.4
20260510081105 13 195 25.7 45.1 0.00 0.08 0.00 75 1013.5
20260510080604 13 201 32.2 51.5 0.00 0.08 0.00 74 1013.5
20260510080104 13 203 29.0 51.5 0.00 0.08 0.00 73 1013.5
20260510075605 13 208 25.7 48.3 0.00 0.08 0.00 74 1013.3
20260510075104 13 214 25.7 37.0 0.00 0.08 0.00 74 1013.6
20260510074604 13 207 25.7 46.7 0.00 0.08 0.00 74 1013.6
20260510074104 13 205 27.4 37.0 0.00 0.08 0.00 75 1013.4
20260510073604 12 205 22.5 35.4 0.00 0.08 0.00 76 1013.6
20260510073104 12 201 20.9 29.0 0.00 0.08 0.00 77 1013.7
20260510072604 12 206 22.5 32.2 0.00 0.08 0.00 77 1013.6
20260510072104 12 203 19.3 32.2 0.00 0.08 0.00 77 1013.6
20260510071605 12 196 22.5 33.8 0.00 0.08 0.00 76 1013.5
20260510071104 12 202 19.3 37.0 0.00 0.08 0.00 76 1013.6
20260510070604 12 204 22.5 37.0 0.00 0.08 0.00 76 1013.8
20260510065106 12 207 22.5 35.4 0.00 0.08 0.00 76 1013.8
20260510064604 12 202 20.9 33.8 0.00 0.08 0.00 76 1013.8
20260510064105 12 199 20.9 35.4 0.00 0.08 0.00 76 1013.9
20260510062605 12 196 22.5 41.8 0.00 0.08 0.00 76 1013.7
20260510062105 12 203 20.9 35.4 0.00 0.08 0.00 77 1013.7
20260510061605 12 200 19.3 37.0 0.00 0.08 0.00 77 1013.5
20260510061105 12 198 16.1 29.0 0.00 0.08 0.00 77 1013.4
20260510060604 12 195 20.9 32.2 0.00 0.08 0.00 77 1013.8
20260510060105 12 203 19.3 29.0 0.00 0.08 0.00 77 1013.5
20260510055606 12 204 17.7 29.0 0.00 0.08 0.00 77 1013.5
20260510054605 12 208 16.1 25.7 0.00 0.08 0.00 78 1013.5
20260510054104 12 214 17.7 32.2 0.00 0.08 0.00 78 1013.4
20260510053106 12 209 14.5 29.0 0.00 0.08 0.00 79 1013.2
20260510052604 12 196 12.9 27.4 0.00 0.08 0.00 79 1013.3
20260510052105 12 208 16.1 29.0 0.00 0.08 0.00 79 1013.2
20260510051606 12 204 19.3 32.2 0.00 0.08 0.00 79 1013.1
20260510051104 12 194 20.9 35.4 0.00 0.08 0.00 79 1013.1
20260510050604 12 196 16.1 25.7 0.00 0.08 0.00 79 1013.0
20260510050105 12 196 16.1 27.4 0.00 0.08 0.00 80 1013.2
20260510045106 11 191 20.9 29.0 0.00 0.08 0.00 80 1013.0
20260510044104 11 195 17.7 32.2 0.00 0.08 0.00 80 1013.0
20260510043604 11 192 19.3 29.0 0.00 0.08 0.00 80 1013.2
20260510043104 11 193 11.3 22.5 0.00 0.08 0.00 81 1013.1
20260510042604 11 202 11.3 22.5 0.00 0.08 0.00 80 1013.2
20260510042104 11 187 12.9 24.1 0.00 0.08 0.00 80 1013.0
20260510041605 11 193 9.7 20.9 0.00 0.08 0.00 79 1013.1
20260510041104 11 195 11.3 22.5 0.00 0.08 0.00 79 1013.1
20260510040605 11 193 9.7 20.9 0.00 0.08 0.00 79 1013.1
20260510040104 12 208 14.5 24.1 0.00 0.08 0.00 78 1013.0
20260510035604 12 207 16.1 24.1 0.00 0.08 0.00 78 1013.1
20260510035105 12 195 16.1 25.7 0.00 0.08 0.00 77 1013.1
20260510033604 11 186 16.1 29.0 0.00 0.08 0.00 77 1013.1
20260510033104 12 183 14.5 25.7 0.00 0.08 0.00 76 1013.0
20260510032604 11 203 11.3 22.5 0.00 0.08 0.00 77 1013.1
20260510032104 12 190 9.7 22.5 0.00 0.08 0.00 76 1013.4
20260510031605 11 201 14.5 24.1 0.00 0.08 0.00 76 1013.2
20260510031104 12 194 11.3 20.9 0.00 0.08 0.00 75 1013.2
20260510030105 12 187 12.9 27.4 0.00 0.08 0.00 74 1013.1
20260510025604 12 178 11.3 25.7 0.00 0.08 0.00 74 1013.2
20260510025104 12 166 14.5 25.7 0.00 0.08 0.00 74 1013.2
20260510024607 12 179 14.5 25.7 0.00 0.08 0.00 74 1013.2
20260510024106 12 182 12.9 22.5 0.00 0.08 0.00 75 1013.4
20260510023606 11 176 12.9 20.9 0.00 0.08 0.00 75 1013.4
20260510023106 11 184 9.7 20.9 0.00 0.08 0.00 76 1013.5
20260510022606 11 174 11.3 20.9 0.00 0.08 0.00 76 1013.6
20260510022107 11 181 8.0 19.3 0.00 0.08 0.00 77 1013.5
20260510021606 11 162 4.8 16.1 0.00 0.08 0.00 77 1013.7
20260510021106 12 182 6.4 19.3 0.00 0.08 0.00 76 1013.5
20260510020607 12 191 8.0 16.1 0.00 0.08 0.00 76 1013.6
20260510020108 12 181 9.7 19.3 0.00 0.08 0.00 76 1013.5
20260510015607 12 190 9.7 20.9 0.00 0.08 0.00 76 1013.6
20260510014606 11 202 11.3 20.9 0.00 0.08 0.00 78 1013.9
20260510013605 11 193 14.5 20.9 0.00 0.08 0.00 79 1013.8
20260510012606 11 210 11.3 20.9 0.00 0.08 0.00 79 1014.0
20260510011605 11 203 12.9 20.9 0.00 0.08 0.00 79 1014.0
20260510011107 11 189 11.3 19.3 0.00 0.08 0.00 79 1014.1
20260510010607 11 218 9.7 20.9 0.00 0.08 0.00 80 1014.1
20260510005606 11 191 12.9 19.3 0.00 0.08 0.00 80 1014.0
20260510005106 12 208 11.3 20.9 0.00 0.08 0.00 79 1014.0
20260510004607 12 196 11.3 19.3 0.00 0.08 0.00 78 1013.9
20260510004106 12 194 12.9 22.5 0.00 0.08 0.00 78 1014.2
20260510003607 12 200 12.9 22.5 0.00 0.08 0.00 79 1014.3
20260510003107 11 213 12.9 22.5 0.00 0.08 0.00 80 1014.1
20260510002605 11 204 11.3 20.9 0.00 0.08 0.00 81 1014.2
20260510002106 11 206 9.7 19.3 0.00 0.08 0.00 82 1014.2
20260510001606 11 198 9.7 16.1 0.00 0.08 0.00 82 1014.5
20260510001106 11 199 11.3 20.9 0.00 0.08 0.00 82 1014.3
20260510000607 11 193 9.7 20.9 0.00 0.08 0.00 83 1014.4
20260510000107 11 179 8.0 12.9 0.00 0.08 0.00 82 1014.4
20260509235106 11 203 8.0 14.5 0.00 0.08 0.00 82 1014.4